Location: Chuathbaluk
(61.5726°N, 159.2454°W)
Time: 07:53:07
(UTC+00:00)

XW-2F - Pass Details

Date: 21 January 2021
Orbit: 499 x 520 km, 97.5° (Epoch: 09 March)

Event Time Altitude Azimuth Distance (km) Brightness Sun altitude
Rises 15:48:23 0° 23° (NNE) 2,663 ? -24.4°
Reaches altitude 10° 15:51:01 10° 43° (NE) 1,771 ? -24.1°
Maximum altitude 15:53:44 18° 88° (E) 1,318 ? -23.8°
Drops below altitude 10° 15:56:27 10° 134° (SE) 1,764 ? -23.4°
Sets 15:59:04 0° 153° (SSE) 2,647 ? -23.1°
